When you browse on this site, cookies collect data to enhance your experience and personalize the content and advertising you see.
Visit our Privacy Policy to learn more. By continuing to use the site, you agree to this use of cookies and data.

Météo par heure à Can Tho

Ce jour, 4 Août, Mardi

Heure Température Précipitation Vent Pression Humidité
00:00 +27°C° 0 mm 2 m/s 754 mmHg 91%
01:00 +27°C° 0 mm 2 m/s 754 mmHg 92%
02:00 +27°C° 0.9 mm 2 m/s 754 mmHg 92%
03:00 +27°C° 0.9 mm 2 m/s 754 mmHg 92%
04:00 +27°C° 0.9 mm 2 m/s 753 mmHg 93%
05:00 +27°C° 0.5 mm 3 m/s 754 mmHg 92%
06:00 +27°C° 0.5 mm 3 m/s 754 mmHg 91%
07:00 +27°C° 0 mm 3 m/s 754 mmHg 93%
08:00 +27°C° 0.2 mm 3 m/s 755 mmHg 91%
09:00 +28°C° 0.2 mm 4 m/s 755 mmHg 90%
10:00 +28°C° 0.2 mm 5 m/s 755 mmHg 89%
11:00 +29°C° 0.1 mm 5 m/s 755 mmHg 85%
12:00 +30°C° 0.1 mm 5 m/s 754 mmHg 80%
13:00 +32°C° 0 mm 5 m/s 754 mmHg 77%
14:00 +32°C° 0.8 mm 6 m/s 754 mmHg 78%
15:00 +30°C° 0.8 mm 7 m/s 753 mmHg 79%
16:00 +30°C° 0.8 mm 7 m/s 753 mmHg 80%
17:00 +29°C° 0.4 mm 6 m/s 753 mmHg 83%
18:00 +28°C° 0.4 mm 4 m/s 753 mmHg 86%
19:00 +26°C° 0.4 mm 2 m/s 754 mmHg 90%
20:00 +26°C° 0 mm 2 m/s 754 mmHg 90%
21:00 +26°C° 0 mm 1 m/s 755 mmHg 90%
22:00 +26°C° 0 mm 1 m/s 755 mmHg 90%
23:00 +26°C° 0 mm 1 m/s 755 mmHg 90%

Demain, 5 Août, Mercredi

Heure Température Précipitation Vent Pression Humidité
00:00 +26°C° 0 mm 1 m/s 755 mmHg 91%
01:00 +26°C° 0 mm 1 m/s 755 mmHg 92%
02:00 +26°C° 0 mm 1 m/s 754 mmHg 92%
03:00 +26°C° 0 mm 1 m/s 754 mmHg 92%
04:00 +26°C° 0 mm 1 m/s 754 mmHg 92%
05:00 +26°C° 0.1 mm 1 m/s 754 mmHg 92%
06:00 +27°C° 0.1 mm 1 m/s 754 mmHg 91%
07:00 +27°C° 0.1 mm 1 m/s 755 mmHg 90%
08:00 +29°C° 0.2 mm 2 m/s 755 mmHg 85%
09:00 +30°C° 0.2 mm 3 m/s 755 mmHg 80%
10:00 +32°C° 0.2 mm 4 m/s 755 mmHg 75%
11:00 +32°C° 0.4 mm 4 m/s 755 mmHg 75%
12:00 +32°C° 0.4 mm 4 m/s 755 mmHg 75%
13:00 +32°C° 0.4 mm 4 m/s 754 mmHg 74%
14:00 +31°C° 0.1 mm 3 m/s 754 mmHg 75%
15:00 +31°C° 0.1 mm 3 m/s 753 mmHg 75%
16:00 +30°C° 0.1 mm 3 m/s 753 mmHg 76%
17:00 +30°C° 0 mm 3 m/s 753 mmHg 78%
18:00 +29°C° 0 mm 3 m/s 754 mmHg 80%
19:00 +29°C° 0 mm 3 m/s 754 mmHg 82%
20:00 +28°C° 0.7 mm 3 m/s 755 mmHg 84%
21:00 +28°C° 0.7 mm 3 m/s 756 mmHg 85%
22:00 +28°C° 0.7 mm 3 m/s 756 mmHg 87%
23:00 +28°C° 1.5 mm 3 m/s 756 mmHg 88%

Après-demain, 6 Août, Jeudi

Heure Température Précipitation Vent Pression Humidité
00:00 +27°C° 1.5 mm 3 m/s 756 mmHg 89%
01:00 +27°C° 1.5 mm 3 m/s 756 mmHg 90%
02:00 +26°C° 1.2 mm 3 m/s 755 mmHg 92%
03:00 +26°C° 1.2 mm 3 m/s 755 mmHg 93%
04:00 +26°C° 1.2 mm 3 m/s 755 mmHg 95%
05:00 +26°C° 1.7 mm 3 m/s 756 mmHg 95%
06:00 +25°C° 1.7 mm 3 m/s 756 mmHg 95%
07:00 +25°C° 1.7 mm 4 m/s 756 mmHg 95%
08:00 +25°C° 2.1 mm 4 m/s 757 mmHg 95%
09:00 +25°C° 2.1 mm 4 m/s 757 mmHg 94%
10:00 +25°C° 2.1 mm 4 m/s 757 mmHg 94%
11:00 +25°C° 1.3 mm 4 m/s 757 mmHg 93%
12:00 +26°C° 1.3 mm 3 m/s 756 mmHg 92%
13:00 +26°C° 1.3 mm 2 m/s 756 mmHg 90%
14:00 +26°C° 0.7 mm 3 m/s 755 mmHg 91%
15:00 +26°C° 0.7 mm 3 m/s 755 mmHg 91%
16:00 +26°C° 0.7 mm 3 m/s 755 mmHg 92%
17:00 +26°C° 0.6 mm 3 m/s 755 mmHg 93%
18:00 +25°C° 0.6 mm 2 m/s 755 mmHg 95%
19:00 +25°C° 0.6 mm 2 m/s 756 mmHg 96%
20:00 +25°C° 0.2 mm 2 m/s 756 mmHg 96%
21:00 +25°C° 0.2 mm 2 m/s 756 mmHg 95%
22:00 +25°C° 0.2 mm 2 m/s 757 mmHg 95%
23:00 +25°C° 0 mm 2 m/s 756 mmHg 95%

7 Août, Vendredi

Heure Température Précipitation Vent Pression Humidité
00:00 +25°C° 0 mm 2 m/s 756 mmHg 95%
01:00 +25°C° 0 mm 2 m/s 756 mmHg 95%
02:00 +25°C° 0 mm 2 m/s 756 mmHg 95%
03:00 +25°C° 0 mm 2 m/s 755 mmHg 94%
04:00 +25°C° 0 mm 2 m/s 755 mmHg 93%
05:00 +26°C° 0 mm 2 m/s 755 mmHg 93%
06:00 +26°C° 0 mm 2 m/s 755 mmHg 92%
07:00 +26°C° 0 mm 3 m/s 756 mmHg 92%
08:00 +27°C° 0 mm 3 m/s 756 mmHg 89%
09:00 +27°C° 0 mm 3 m/s 756 mmHg 87%
10:00 +28°C° 0 mm 3 m/s 757 mmHg 84%
11:00 +29°C° 0.1 mm 3 m/s 756 mmHg 83%
12:00 +29°C° 0.1 mm 3 m/s 756 mmHg 81%
13:00 +30°C° 0.1 mm 3 m/s 755 mmHg 80%
14:00 +30°C° 0.4 mm 3 m/s 755 mmHg 80%
15:00 +29°C° 0.4 mm 3 m/s 754 mmHg 80%
16:00 +29°C° 0.4 mm 3 m/s 754 mmHg 80%
17:00 +29°C° 0 mm 3 m/s 754 mmHg 82%
18:00 +28°C° 0 mm 3 m/s 754 mmHg 84%
19:00 +27°C° 0 mm 2 m/s 755 mmHg 86%
20:00 +27°C° 0 mm 2 m/s 755 mmHg 87%
21:00 +27°C° 0 mm 2 m/s 756 mmHg 87%
22:00 +26°C° 0 mm 1 m/s 756 mmHg 87%
23:00 +26°C° 0 mm 1 m/s 756 mmHg 88%

8 Août, Samedi

Heure Température Précipitation Vent Pression Humidité
00:00 +26°C° 0 mm 1 m/s 756 mmHg 89%
01:00 +26°C° 0 mm 1 m/s 755 mmHg 90%
02:00 +26°C° 0 mm 1 m/s 755 mmHg 91%
03:00 +25°C° 0 mm 1 m/s 755 mmHg 91%
04:00 +25°C° 0 mm 1 m/s 754 mmHg 92%
05:00 +26°C° 0.3 mm 1 m/s 755 mmHg 91%
06:00 +26°C° 0.3 mm 1 m/s 755 mmHg 91%
07:00 +26°C° 0.3 mm 1 m/s 755 mmHg 90%
08:00 +28°C° 0 mm 2 m/s 755 mmHg 85%
09:00 +29°C° 0 mm 2 m/s 755 mmHg 80%
10:00 +31°C° 0 mm 3 m/s 756 mmHg 75%
11:00 +31°C° 0 mm 3 m/s 755 mmHg 73%
12:00 +33°C° 0 mm 3 m/s 754 mmHg 71%
13:00 +33°C° 0 mm 3 m/s 754 mmHg 70%
14:00 +33°C° 0.6 mm 3 m/s 753 mmHg 71%
15:00 +33°C° 0.6 mm 3 m/s 753 mmHg 73%
16:00 +31°C° 0.6 mm 3 m/s 752 mmHg 74%
17:00 +30°C° 0.1 mm 3 m/s 753 mmHg 78%
18:00 +29°C° 0.1 mm 2 m/s 753 mmHg 82%
19:00 +28°C° 0.1 mm 2 m/s 753 mmHg 87%
20:00 +28°C° 0 mm 2 m/s 754 mmHg 87%
21:00 +28°C° 0 mm 2 m/s 755 mmHg 88%
22:00 +28°C° 0 mm 2 m/s 755 mmHg 89%
23:00 +27°C° 0 mm 2 m/s 755 mmHg 90%

9 Août, Dimanche

Heure Température Précipitation Vent Pression Humidité
00:00 +27°C° 0 mm 2 m/s 755 mmHg 91%
01:00 +27°C° 0 mm 2 m/s 754 mmHg 92%
02:00 +27°C° 0 mm 2 m/s 754 mmHg 92%
03:00 +27°C° 0 mm 1 m/s 754 mmHg 93%
04:00 +26°C° 0 mm 1 m/s 754 mmHg 93%
05:00 +27°C° 0 mm 1 m/s 754 mmHg 92%
06:00 +28°C° 0 mm 1 m/s 754 mmHg 90%
07:00 +28°C° 0 mm 1 m/s 755 mmHg 89%
08:00 +30°C° 0.3 mm 2 m/s 755 mmHg 81%
09:00 +31°C° 0.3 mm 2 m/s 755 mmHg 74%
10:00 +34°C° 0.3 mm 3 m/s 755 mmHg 66%
11:00 +34°C° 0.6 mm 3 m/s 755 mmHg 64%
12:00 +35°C° 0.6 mm 4 m/s 754 mmHg 62%
13:00 +35°C° 0.6 mm 4 m/s 754 mmHg 61%
14:00 +35°C° 0.8 mm 4 m/s 753 mmHg 63%
15:00 +34°C° 0.8 mm 4 m/s 753 mmHg 65%
16:00 +34°C° 0.8 mm 3 m/s 752 mmHg 67%
17:00 +33°C° 0.3 mm 3 m/s 753 mmHg 72%
18:00 +30°C° 0.3 mm 2 m/s 753 mmHg 78%
19:00 +29°C° 0.3 mm 2 m/s 754 mmHg 83%
20:00 +29°C° 0 mm 2 m/s 755 mmHg 84%
21:00 +29°C° 0 mm 1 m/s 755 mmHg 86%
22:00 +28°C° 0 mm 1 m/s 756 mmHg 87%
23:00 +28°C° 0 mm 1 m/s 756 mmHg 88%
Voir plus